Weather History for Hamilton, OH

Change the Weather History Date:

Saturday, May 4, 2013

  Actual Average (KCVG) Record (KCVG)
Temperature  
Mean Temperature 64 °F 60 °F  
Max Temperature 73 °F 71 °F 90 °F (1949)
Min Temperature 57 °F 50 °F 30 °F (1971)
Degree Days  
Heating Degree Days 0 6  
Month to date heating degree days 26  
Since 1 July heating degree days 4860  
Cooling Degree Days 0 1  
Month to date cooling degree days 4  
Year to date cooling degree days 22  
Growing Degree Days 14 (Base 50)    
Moisture  
Dew Point 45 °F    
Average Humidity 51    
Maximum Humidity 78    
Minimum Humidity 36    
Precipitation  
Precipitation 0.00 in 0.17 in 1.43 in (1884)
Month to date precipitation 0.64  
Year to date precipitation 14.30  
Snow  
Snow 0.00 in 0.00 in 0.00 in ()
Month to date snowfall 0.0  
Since 1 July snowfall 22.1  
Snow Depth -    
Sea Level Pressure  
Sea Level Pressure 29.99 in    
Wind  
Wind Speed 9 mph (ESE)    
Max Wind Speed 13 mph    
Max Gust Speed 20 mph    
Visibility 10 miles    
Events      
T = Trace of Precipitation, MM = Missing Value Source: NWS Daily Summary

Daily Weather History Graph

Daily Weather History Graph

Search for Another Location

Airport:

Trip Planner

Search our weather history database for the weather conditions in past years. The results will help you decide how hot, cold, wet, or windy it might be!

Date:

Astronomy

May. 04, 2013 Rise Set
Actual Time 6:35 AM EDT 8:34 PM EDT
Civil Twilight 6:06 AM EDT 9:04 PM EDT
Nautical Twilight 5:30 AM EDT 9:39 PM EDT
Astronomical Twilight 4:52 AM EDT 10:18 PM EDT
Moon 3:31 AM EDT (5/4) 3:33 PM EDT (5/4)
Length of Visible Light 14h 57m
Length of Day
13h 59m
Waning Crescent, 27% of the Moon is Illuminated
May 4
Waning Crescent
May 9
New
May 18
First Quarter
May 25
Full
May 31
Last Quarter

Hourly Weather History & Observations

Time (EDT) Temp. Dew Point Humidity Pressure Visibility Wind Dir Wind Speed Gust Speed Precip Events Conditions
12:53 AM 66.0 °F 39.0 °F 37% 30.00 in 10.0 mi SE 8.1 mph - N/A   Clear
1:53 AM 64.0 °F 39.9 °F 41% 30.00 in 10.0 mi ESE 8.1 mph - N/A   Clear
2:53 AM 63.0 °F 41.0 °F 45% 30.01 in 10.0 mi Variable 3.5 mph - N/A   Clear
3:53 AM 60.1 °F 44.1 °F 55% 30.00 in 10.0 mi ESE 6.9 mph - N/A   Clear
4:53 AM 57.0 °F 45.0 °F 64% 30.00 in 10.0 mi East 5.8 mph - N/A   Clear
5:53 AM 57.9 °F 45.0 °F 62% 30.00 in 10.0 mi East 8.1 mph - N/A   Clear
6:53 AM 57.0 °F 45.0 °F 64% 30.00 in 10.0 mi East 9.2 mph - N/A   Clear
7:53 AM 59.0 °F 46.0 °F 62% 30.01 in 10.0 mi East 8.1 mph - N/A   Partly Cloudy
8:53 AM 60.1 °F 45.0 °F 57% 30.01 in 10.0 mi ESE 10.4 mph - N/A   Clear
9:53 AM 61.0 °F 42.1 °F 50% 30.02 in 10.0 mi ESE 11.5 mph 16.1 mph N/A   Overcast
10:53 AM 62.1 °F 43.0 °F 50% 30.01 in 10.0 mi East 11.5 mph - 0.00 in   Overcast
11:53 AM 64.9 °F 41.0 °F 42% 30.01 in 10.0 mi ESE 5.8 mph - N/A   Overcast
12:53 PM 66.9 °F 41.0 °F 39% 29.99 in 10.0 mi East 8.1 mph - N/A   Scattered Clouds
1:53 PM 69.1 °F 41.0 °F 36% 29.98 in 10.0 mi East 9.2 mph - N/A   Clear
2:53 PM 70.0 °F 45.0 °F 41% 29.97 in 10.0 mi East 12.7 mph 19.6 mph N/A   Clear
3:53 PM 69.1 °F 45.0 °F 42% 29.96 in 10.0 mi East 8.1 mph - N/A   Clear
4:53 PM 72.0 °F 48.9 °F 44% 29.94 in 10.0 mi East 11.5 mph 16.1 mph N/A   Clear
5:53 PM 71.1 °F 48.9 °F 45% 29.94 in 10.0 mi East 12.7 mph - N/A   Mostly Cloudy
6:53 PM 71.1 °F 46.9 °F 42% 29.94 in 10.0 mi East 11.5 mph - N/A   Partly Cloudy
7:53 PM 69.1 °F 48.0 °F 47% 29.95 in 10.0 mi East 11.5 mph - N/A   Overcast
8:53 PM 66.9 °F 48.0 °F 51% 29.96 in 10.0 mi East 9.2 mph - N/A   Overcast
9:53 PM 64.9 °F 48.0 °F 54% 29.97 in 10.0 mi East 11.5 mph - N/A   Mostly Cloudy
10:53 PM 63.0 °F 51.1 °F 65% 30.01 in 10.0 mi WSW 9.2 mph - N/A   Mostly Cloudy
11:53 PM 57.9 °F 51.1 °F 78% 30.01 in 10.0 mi WSW 6.9 mph - N/A   Mostly Cloudy